Find Starlink 2640

NORAD ID: 48438 Int'l Des: 2021-040 Owner: SPXS Country: US Constellation: starlink operational
LEOCIRCULAR

实时位置

正在加载3D地球...

关于 Starlink 2640

正在加载描述...

即将过境

Passes for default location (London). Set your location on the main map for personalized predictions.

高度历史

Loading altitude history...

两行轨道根数

1 48438U 21040L 26126.38610036 .00003994 00000-0 14034-3 0 9998
2 48438 53.1594 269.9492 0001000 79.4681 280.6433 15.31714176275515
Epoch: May 6, 2026 • Age: 19 hours

当前状态

高度 474.0 km
速度 7.63 km/s
星下点 -12.00°S, 27.71°W
发射日期 May 9, 2021
运行时间 4.9 years
类型 internet

技术详情

分类 Payload
质量 260.00 kg
干质量 248.00 kg
总质量 260.00 kg
长度 0.20 m
直径 2.80 m
跨度 9.00 m
形状 Box + pan
制造商 SPXS
平台类型 Starlink
阶段状态 In Orbit
所有者/国家 SPXS/US

Most Searched